Regional Weather Roundup
Issued by NWS

Home | Current Version | Previous Version | Text Only | Print | Product List | Glossary Off
Versions: 1 2 3 4 5 6 7 8 9 10 11 12 13 14 15 16 17 18 19 20 21 22 23 24 25 26 27 28 29 30 31 32 33 34 35 36 37 38 39 40 41 42 43 44 45 46 47 48 49 50

000
ASUS43 KIND 271009
RWRIN

WEATHER ROUNDUP FOR INDIANA
NATIONAL WEATHER SERVICE INDIANAPOLIS IN
600 AM EDT FRI MAR 27 2015

NOTE: "FAIR" INDICATES FEW OR NO CLOUDS BELOW 12,000 FEET WITH NO
SIGNIFICANT WEATHER AND/OR OBSTRUCTIONS TO VISIBILITY.

* - STATION DOES NOT REPORT WEATHER SUCH AS PRECIPITATION OR FOG.

+ - STATION NOT QUALITY CONTROLLED BY THE NATIONAL WEATHER SERVICE.
    USE DATA WITH CAUTION...ESPECIALLY DEWPOINT AND RELATIVE
    HUMIDITY OBSERVATIONS.

INZ001>003-010>013-019-020-271100-
NORTHWEST INDIANA

CITY           SKY/WX    TMP DP  RH WIND       PRES   REMARKS
GARY /AIRPORT/ LGT SNOW  30  21  69 N12G23    30.08R WCI  21
KNOX *+          N/A     27  10  50 N9        30.04R WCI  17
LA PORTE +     CLOUDY    28  19  68 N10       30.06R WCI  18
MICHIGAN CITY+ FLURRIES  27  16  63 N12       30.07S WCI  16
MONTICELLO +   MOCLDY    28  24  84 N10       30.03R WCI  19
RENSSELAER +   FLURRIES  30  28  93 N9        30.05S WCI  22
VALPARAISO     FLURRIES  26  19  74 N12       30.05S WCI  16

$$

LMZ046-743>745-271100-
SOUTHERN LAKE MICHIGAN

STATION/POSITION TIME  TEMP WIND        PRES
                       AIR  DIR/SP/G
                 (UTC) (F)  (DEG/KT/KT) (MB)
BURNS HARBOR     1000   28   30/ 16/ 20 1018.6R
MICHIGAN CITY    1000   26  360/ 18/ 21   N/A

$$

INZ004-005-014>016-021>024-271100-
NORTH CENTRAL INDIANA

CITY           SKY/WX    TMP DP  RH WIND       PRES   REMARKS
GOSHEN         CLOUDY    27  17  66 N15       30.02R WCI  15
LOGANSPORT +   MOCLDY    30  27  86 N8        30.03S WCI  23
PERU/GRISSOM   MOCLDY    29  23  78 N6        30.00S WCI  23
ROCHESTER +    PTCLDY    30  25  80 N10       30.03R WCI  21
SOUTH BEND     CLOUDY    26  16  65 N9        30.04S WCI  17
WARSAW +       CLOUDY    28  23  80 NW6       30.01S WCI  22

$$

INZ006>009-017-018-025>027-271100-
NORTHEAST INDIANA

CITY           SKY/WX    TMP DP  RH WIND       PRES   REMARKS
ANGOLA *+      PTCLDY    25  12  58 N10       29.99R WCI  15
AUBURN +       CLOUDY    30  18  59 N10       30.00S WCI  21
FORT WAYNE     CLOUDY    30  24  78 NW9       29.99S WCI  22
HUNTINGTON +   CLOUDY    28  22  76 NW5       30.00R WCI  23

$$

INZ028-029-035-036-043>045-051>053-271100-
WEST CENTRAL INDIANA

CITY           SKY/WX    TMP DP  RH WIND       PRES   REMARKS
CRAWFORDSVL +  CLOUDY    29  22  73 MISG      30.03S
GREENCASTLE +  CLOUDY    30  23  74 N3        30.03R
LAFAYETTE      CLOUDY    29  23  78 N6        30.05R WCI  23
TERRE HAUTE    CLOUDY    32  26  78 N6        30.04R WCI  26

$$

INZ030>032-037>040-046>048-054>057-064-065-271100-
CENTRAL INDIANA

CITY           SKY/WX    TMP DP  RH WIND       PRES   REMARKS
CP ATTERBURY + CLEAR     30  27  86 N7        30.00R WCI  23
FISHERS *+     MOCLDY    28  27  93 CALM      30.01R
FRANKFORT +    CLOUDY    31  26  83 NW8       30.04R WCI  23
GREENWOOD *+   PTCLDY    30  23  74 N6        30.01R WCI  24
INDIANAPOLIS   CLOUDY    31  24  75 N7        30.01R WCI  24
-EAGLE CREEK   CLOUDY    31  24  75 N7        30.01R WCI  24
KOKOMO *+        N/A     30  25  80 N12       30.01S WCI  21
MARION +       CLOUDY    30  24  78 N9        30.00S WCI  22
MT COMFORT *+  PTCLDY    30  21  69 N8        30.00R WCI  23
SHELBYVILLE    CLEAR     30  25  81 N9        29.99R WCI  22
ZIONSVILLE +   CLOUDY    31  26  80 NW7       30.02R WCI  24

$$

INZ033-034-041-042-049-050-058-059-271100-
EAST CENTRAL INDIANA

CITY           SKY/WX    TMP DP  RH WIND       PRES   REMARKS
MUNCIE         MOCLDY    30  25  81 NW7       29.99R WCI  23

$$

INZ060-061-067>069-081>083-085>088-271100-
SOUTHWEST INDIANA

CITY           SKY/WX    TMP DP  RH WIND       PRES   REMARKS
EVANSVILLE     PTCLDY    37  30  75 NW7       30.02R
HUNTINGBURG *+ PTCLDY    32  28  86 N5        30.01R WCI  27
WASHINGTON +   PTCLDY    33  28  80 N9        30.01R WCI  25

$$

INZ062-063-066-070>080-084-089>092-271100-
SOUTH CENTRAL AND SOUTHEAST INDIANA

CITY           SKY/WX    TMP DP  RH WIND       PRES   REMARKS
BEDFORD +      MOCLDY    30  28  93 N3        30.00R
BLOOMINGTON    CLOUDY    31  27  85 N7        30.00R WCI  24
NORTH VERNON + CLEAR     30  30 100 N3        29.98R
SEYMOUR +      CLEAR     32  28  86 N7        29.99R WCI  26

$$



USA.gov is the U.S. government's official web portal to all federal, state and local government web resources and services.